Theta_e
332 332 331 331 331 331 330 329 328 328 328 327 327 327 327 328 328 327 328 327 327 327 329 329 328 327 327 328 327 326 327 327 327 327 326 326 326 326 326 326 326 326 326 327 327 328 329 329 329 329 329 330 330 329 329 328 328 329 330 331 331 330 329
330 330 329 330 330 330 329 328 327 327 326 326 326 326 327 328 327 327 327 327 326 326 327 327 326 325 325 326 326 326 326 327 327 326 326 326 327 326 326 327 326 326 326 326 327 328 329 329 329 329 329 329 329 329 329 329 328 328 329 330 331 330 329
329 329 329 329 329 328 327 327 326 326 326 325 326 327 327 327 326 325 325 325 325 326 326 326 325 325 324 324 325 325 326 326 326 326 326 326 326 326 326 326 326 326 326 328 328 328 329 329 329 329 329 329 329 329 329 329 329 328 328 330 331 331 329
327 328 328 328 327 327 326 326 326 326 325 325 325 326 326 326 325 324 324 325 326 326 325 324 324 323 323 324 324 323 324 325 325 325 325 325 326 326 326 326 326 326 327 328 328 328 328 329 329 329 329 329 329 329 329 330 329 328 328 329 330 330 329
325 325 325 325 325 325 324 324 324 324 324 324 324 324 324 324 324 324 324 324 324 323 322 321 321 321 321 322 322 323 323 323 324 323 323 323 324 325 326 326 326 326 326 326 326 326 327 328 328 329 329 329 328 328 329 329 329 328 328 328 328 329 328
322 322 322 322 322 322 322 321 321 321 321 321 321 321 321 321 321 321 320 319 318 318 317 317 317 318 318 319 319 320 321 322 323 323 322 322 323 324 325 326 327 327 326 326 325 325 326 327 328 328 328 328 328 328 328 328 327 326 327 328 329 329 328
319 319 319 320 320 319 319 318 318 317 317 317 317 316 316 316 316 316 316 315 315 315 315 316 316 316 317 317 317 317 318 319 320 321 321 322 323 324 324 325 326 326 326 325 325 325 325 326 327 328 328 328 328 328 328 328 327 326 326 327 328 329 328
316 316 317 317 317 316 316 315 315 314 314 314 314 313 313 313 313 313 313 313 313 313 314 314 314 315 315 315 315 315 315 315 316 317 318 319 321 322 323 323 324 325 325 324 324 325 325 326 327 328 328 328 328 328 328 328 328 327 325 326 327 328 328
314 314 314 314 314 314 313 313 313 312 312 312 312 312 312 312 312 312 312 312 312 312 312 312 312 312 313 313 313 313 313 313 313 314 314 314 315 317 319 320 322 323 324 323 323 324 324 325 326 327 327 328 328 328 328 328 328 328 326 326 327 328 328
313 313 313 313 312 312 312 312 311 311 311 311 311 311 311 311 311 311 311 311 311 311 311 312 312 311 312 312 312 312 312 312 312 312 313 313 313 313 314 315 317 319 321 322 322 323 324 324 325 326 327 327 327 328 327 327 328 328 327 326 327 327 328
312 312 311 311 311 311 311 311 311 311 311 310 310 310 310 311 311 311 311 311 311 311 311 311 311 311 311 311 311 311 311 312 312 312 312 313 313 313 313 313 313 315 318 320 321 322 323 324 324 326 326 327 327 328 328 327 328 328 327 327 327 327 328
311 310 310 310 310 310 310 310 310 310 310 310 310 310 310 310 310 310 310 310 310 310 310 310 310 310 310 310 310 310 311 311 311 311 312 312 312 313 313 314 313 313 314 317 320 322 323 323 324 325 326 327 327 328 328 327 327 327 327 328 327 326 327
310 310 309 310 310 310 310 310 310 310 310 310 309 309 309 309 309 309 309 309 309 309 309 309 309 309 309 309 309 309 309 310 310 310 311 311 311 312 313 313 314 314 313 313 316 320 322 323 324 325 326 327 327 328 328 328 327 327 327 327 327 326 326
309 309 309 309 309 309 309 309 309 308 308 308 308 308 308 308 308 308 308 307 307 307 307 306 306 306 307 307 307 307 308 308 309 309 310 310 310 311 312 312 313 314 313 312 313 318 321 322 324 325 326 326 327 327 328 328 328 328 328 328 328 327 326
308 308 307 307 307 307 307 307 306 306 306 306 306 305 305 305 305 305 305 305 304 304 304 304 304 304 304 304 305 305 306 306 307 307 308 309 309 310 311 312 312 313 314 313 312 315 319 322 323 325 326 326 327 327 327 327 328 328 328 328 328 328 327
306 306 306 305 305 305 305 304 304 304 303 303 303 303 303 303 302 302 302 302 302 302 302 302 302 302 302 302 303 303 304 304 305 306 306 307 308 309 309 310 311 312 313 314 313 313 316 319 322 323 324 325 326 326 326 327 328 328 328 328 328 328 327
304 304 304 303 303 302 302 302 302 301 301 301 301 300 300 300 300 299 299 299 299 299 299 299 300 300 300 301 301 301 302 302 303 304 305 305 306 307 308 308 309 310 311 312 313 313 313 316 319 320 322 323 324 325 325 325 326 327 327 327 327 328 328
302 302 301 301 300 300 300 300 299 299 299 298 298 298 297 297 297 297 297 297 297 297 297 297 297 298 298 299 299 300 300 301 301 302 303 304 305 306 306 307 308 309 309 310 311 312 312 313 316 318 320 321 322 324 325 325 325 326 327 327 327 327 328
300 300 299 299 299 298 298 298 297 297 297 297 296 296 296 296 296 296 296 296 296 296 296 296 296 296 296 297 298 298 299 299 300 301 301 302 303 304 305 305 306 307 308 309 309 310 311 312 313 315 317 318 320 321 323 324 325 325 326 327 327 327 327
299 298 298 298 297 297 297 297 297 296 296 296 296 296 296 296 295 295 295 295 295 295 295 295 295 295 295 295 296 297 298 298 299 299 300 301 301 302 303 304 305 306 307 307 308 309 309 310 311 313 314 315 317 318 321 323 324 324 324 326 327 328 327
297 297 297 297 297 296 296 296 296 296 296 296 296 295 295 295 295 295 295 295 295 295 295 295 295 295 295 295 295 296 297 297 298 298 299 299 300 301 301 302 303 304 305 305 306 307 308 308 309 310 312 313 314 315 317 320 321 322 323 325 326 327 328
297 297 297 296 296 296 296 296 296 296 296 295 295 295 295 295 295 295 294 294 294 294 294 294 294 294 294 294 295 296 297 297 297 298 298 298 299 299 300 301 302 303 303 304 304 305 306 307 307 308 310 311 312 314 315 317 318 320 322 323 324 326 327
297 297 296 296 296 296 296 296 296 295 295 295 294 294 294 294 294 294 294 294 294 294 294 294 294 294 294 294 294 295 296 297 297 297 297 298 298 298 299 300 300 301 302 303 303 304 305 305 306 307 308 308 309 311 313 314 316 317 319 321 322 324 325
297 296 296 296 296 296 296 296 295 295 294 294 294 294 294 294 294 294 294 294 294 294 294 294 294 294 294 294 294 295 295 296 297 297 297 297 297 298 298 299 299 300 301 302 302 302 303 304 305 306 308 308 308 308 309 311 313 315 317 318 321 322 323
296 296 296 296 296 295 295 295 294 294 294 293 293 293 293 293 293 293 293 293 293 293 293 293 294 294 294 294 294 295 295 296 296 297 297 297 297 297 297 298 298 299 300 300 301 301 302 303 304 305 306 308 308 308 308 309 311 313 314 316 319 320 322
296 296 296 295 295 295 295 294 294 293 293 293 293 293 293 293 293 293 293 293 293 293 293 293 293 294 294 294 294 294 295 296 296 296 297 297 297 297 297 297 297 298 298 298 299 300 301 301 303 304 305 306 307 309 309 309 310 311 312 314 316 319 321
296 296 295 295 294 294 294 294 293 293 293 293 293 293 293 293 293 293 293 293 293 293 293 293 293 294 294 294 294 294 295 295 296 296 296 296 297 297 297 297 297 297 297 297 298 298 299 300 301 302 304 305 306 307 308 309 310 311 312 312 314 317 320
295 295 294 294 294 294 294 293 293 294 294 293 293 293 293 293 293 293 293 292 292 293 293 293 293 293 293 294 294 294 295 295 296 296 296 296 296 297 297 297 297 297 297 297 297 298 298 299 300 301 302 303 305 306 307 309 309 311 312 312 313 315 318
295 294 294 294 294 294 294 293 293 294 294 294 293 293 293 293 293 293 292 292 292 292 292 292 293 293 293 293 294 294 294 295 295 296 296 296 296 296 297 297 297 297 297 297 298 298 298 298 299 300 301 302 303 305 307 308 309 309 311 312 313 315 317
294 294 294 294 294 294 294 294 294 294 294 294 294 293 293 293 293 293 292 292 292 292 292 292 292 292 293 293 294 294 295 295 295 296 296 296 296 296 297 296 296 297 297 298 298 298 298 298 299 300 300 301 301 304 306 308 309 310 310 311 312 314 316
295 294 294 294 294 294 294 294 294 294 294 294 294 293 293 293 293 292 292 292 292 292 292 292 292 292 293 293 293 294 294 295 295 295 296 296 296 296 296 296 296 297 297 298 298 299 299 298 299 299 300 300 300 302 304 307 309 310 311 311 312 314 316
295 295 294 294 294 294 294 294 294 294 294 294 294 293 293 293 293 292 292 292 292 292 292 291 291 292 292 293 293 293 294 294 295 295 296 296 296 296 296 296 296 296 297 297 298 299 298 298 298 299 299 299 300 301 303 305 307 309 311 313 313 314 316
296 295 295 294 294 294 293 294 294 294 294 294 294 293 293 293 293 292 292 292 292 292 292 291 291 292 292 292 292 293 293 294 294 295 295 295 296 296 296 296 296 296 296 297 297 298 298 298 298 298 298 298 299 300 301 303 305 307 310 313 314 314 316
296 296 295 295 294 294 293 294 294 294 294 294 293 293 293 293 292 292 292 292 292 292 291 291 291 292 292 292 292 292 293 293 294 294 295 295 295 295 295 295 295 296 296 296 297 297 298 298 298 298 298 298 298 300 301 302 304 306 309 313 315 315 316
296 296 296 295 295 294 294 294 294 294 294 294 293 293 293 293 293 292 292 292 292 292 291 291 291 292 292 292 291 291 292 293 293 293 294 294 295 295 295 295 295 295 295 296 296 297 297 298 298 298 297 298 299 300 301 302 304 306 308 312 314 315 315
297 296 296 295 295 294 294 294 294 294 294 294 294 294 293 293 293 292 292 292 292 292 292 291 291 292 291 291 291 291 292 293 293 293 293 294 294 294 294 294 294 294 295 295 296 296 297 297 297 298 298 298 299 300 300 301 302 304 307 310 312 314 316
297 296 296 295 295 295 294 294 294 294 294 294 294 294 293 293 293 292 292 292 292 292 292 291 291 291 291 291 291 291 292 292 293 293 293 293 293 293 293 293 294 294 294 295 295 296 296 297 297 297 298 298 299 299 299 300 300 302 304 306 308 311 313
Wind_Speed
8 10 12 12 12 13 14 16 18 17 18 19 20 21 22 21 22 23 24 25 24 22 22 22 22 20 18 17 16 16 16 16 16 17 17 16 18 19 19 20 20 20 20 21 22 24 27 31 31 29 28 28 27 26 25 24 24 27 30 30 29 28 27
11 13 14 14 15 16 18 18 18 18 20 20 21 21 21 21 23 24 24 25 25 23 22 21 22 21 21 21 20 18 16 16 16 18 18 17 18 19 19 21 22 21 20 21 23 24 26 30 33 33 32 31 31 29 27 26 25 25 27 30 30 29 29
13 14 15 16 17 20 21 21 22 23 23 22 21 21 21 22 24 25 24 24 24 22 22 22 22 22 22 22 22 20 18 17 17 18 19 19 19 20 19 21 23 21 21 24 26 26 27 28 32 34 33 32 32 30 27 27 27 25 25 28 30 30 30
15 16 18 20 21 22 23 23 23 23 23 22 22 23 23 24 25 25 25 24 22 22 23 23 23 23 23 23 22 20 19 19 19 20 20 19 19 19 19 21 21 21 22 25 27 27 27 29 31 34 34 32 33 31 28 26 26 25 24 25 29 31 31
13 15 16 18 19 19 20 19 18 18 18 19 20 21 22 22 22 22 22 22 21 22 23 23 23 24 24 24 23 22 22 22 22 23 23 22 21 20 19 20 21 21 21 24 26 27 26 28 29 33 35 33 32 31 27 25 24 24 24 25 27 29 31
10 11 12 13 14 15 15 15 15 14 15 15 16 16 17 17 18 18 19 21 22 23 23 24 24 25 25 24 24 24 24 24 25 24 25 26 25 23 20 20 20 21 22 23 25 26 25 25 27 30 33 31 32 31 26 23 22 23 25 26 26 26 28
9 10 11 12 13 14 14 14 14 14 14 14 15 15 16 16 17 17 19 21 22 23 23 24 24 25 25 24 24 25 25 26 26 26 27 28 27 25 23 22 21 21 22 23 25 25 24 23 24 27 30 30 30 29 26 24 24 25 26 26 25 25 26
9 10 10 11 11 12 12 13 13 13 13 14 15 15 16 16 16 17 18 19 20 21 22 23 24 24 24 24 24 25 25 25 26 27 28 29 29 28 27 25 25 24 24 23 24 24 23 22 23 25 28 30 30 28 28 28 28 28 28 27 26 26 25
8 8 8 9 9 9 10 11 11 12 12 13 13 14 15 16 16 16 16 17 18 19 20 22 23 23 24 24 24 25 24 24 25 25 26 27 28 29 29 28 27 27 26 24 23 23 23 22 22 23 26 29 29 29 28 28 29 30 28 28 28 28 28
7 7 7 8 8 9 9 10 10 11 11 12 12 13 14 15 15 16 16 16 17 18 19 20 21 21 22 23 24 24 24 24 24 24 24 25 26 27 28 29 28 28 26 24 22 22 23 22 21 21 23 25 27 29 29 27 29 30 29 28 28 29 30
6 6 7 7 8 8 9 9 10 11 11 12 13 13 14 14 14 15 15 16 17 17 18 19 20 21 21 22 22 23 23 24 24 23 23 23 23 24 26 27 28 28 26 24 22 21 22 22 21 21 22 23 25 29 31 31 32 31 29 29 28 27 29
6 6 7 8 8 8 8 9 10 11 11 13 13 14 14 14 14 15 16 16 17 18 19 19 20 21 22 23 24 24 24 24 24 24 23 24 23 23 24 25 26 27 26 26 24 22 21 21 22 21 21 23 24 27 31 33 35 32 29 29 28 25 26
6 6 7 7 7 7 8 9 9 10 11 12 13 14 14 14 15 15 16 17 18 19 20 21 22 23 23 24 25 26 26 26 26 26 25 25 25 24 24 24 25 25 26 27 26 23 22 21 21 22 22 23 25 27 29 32 36 35 32 31 29 27 27
6 6 7 7 7 8 8 9 10 11 11 12 13 13 14 15 15 16 17 18 19 21 22 23 24 24 24 25 26 26 27 28 28 28 28 27 27 27 26 25 24 24 24 26 26 24 23 21 21 22 22 23 25 26 28 31 35 37 35 34 32 29 29
8 8 8 8 9 9 10 11 11 11 11 12 13 14 15 16 16 17 18 19 20 21 22 24 25 26 26 26 26 27 28 29 29 30 30 30 30 29 29 27 26 24 24 24 24 24 24 23 22 22 22 23 24 26 27 29 33 36 37 37 34 30 30
10 9 10 10 11 11 12 12 12 13 13 14 14 15 16 17 18 19 20 21 22 23 23 25 26 27 28 28 29 29 29 30 31 31 31 31 32 31 31 31 29 27 25 24 23 22 23 25 24 24 24 25 25 25 25 28 31 35 37 38 37 33 32
11 11 12 12 13 13 13 14 14 15 15 16 17 18 18 19 20 21 22 23 24 25 25 26 26 27 28 29 30 30 31 31 31 32 32 32 32 32 32 32 31 30 28 25 24 22 21 24 26 26 26 27 28 26 24 25 28 32 34 36 38 37 34
13 13 14 14 15 15 15 15 16 16 17 18 19 19 20 21 22 23 23 24 25 26 26 27 27 27 28 28 29 30 31 31 32 32 31 31 31 31 31 31 31 31 30 28 26 24 23 24 26 29 29 29 29 29 27 25 26 29 33 35 36 37 37
14 15 15 15 15 16 16 16 17 18 18 19 20 20 21 22 23 24 24 25 25 26 27 27 27 28 28 29 29 30 30 30 31 31 31 31 30 30 30 30 29 28 28 27 26 26 26 26 27 29 32 33 32 32 32 30 27 27 31 35 36 36 37
15 16 16 16 16 16 17 17 18 18 19 19 20 21 22 23 23 24 24 25 25 26 26 27 27 28 28 29 29 30 31 31 31 31 31 30 30 30 30 30 29 28 26 26 25 26 27 28 28 28 30 34 36 35 35 35 33 29 29 33 37 37 36
16 16 17 17 17 17 17 17 18 19 19 20 21 22 22 22 22 23 23 24 25 25 26 27 28 29 29 29 29 30 31 32 33 32 32 31 30 30 30 30 29 29 27 25 25 25 26 27 29 29 29 31 35 38 38 38 38 35 31 30 33 37 37
17 17 17 17 17 17 17 18 18 19 19 20 21 21 21 21 22 22 23 24 25 26 28 29 30 31 31 30 29 30 31 32 33 34 34 34 33 32 31 30 29 28 27 26 25 25 25 26 28 30 31 30 31 35 38 39 39 38 36 32 30 32 36
17 16 16 17 16 16 17 17 17 18 19 20 20 21 22 22 24 25 26 26 27 28 29 30 30 30 31 31 30 29 30 32 33 35 36 36 36 35 34 32 30 28 28 28 28 28 27 26 26 28 30 30 29 31 34 38 39 38 38 36 32 30 34
16 16 16 16 15 15 16 16 17 18 19 21 22 23 23 24 26 27 27 28 28 29 30 30 30 30 30 30 30 29 30 31 33 34 36 37 38 38 37 36 34 32 29 28 30 31 31 30 29 28 28 29 29 29 30 34 37 38 38 38 37 33 33
16 16 15 15 14 15 15 16 18 20 22 23 23 24 25 26 27 28 29 29 30 31 31 31 30 30 30 30 29 29 29 30 32 34 36 37 38 39 40 40 39 37 34 32 32 33 35 35 34 32 30 29 29 29 29 30 34 36 36 37 39 39 36
16 15 15 14 14 15 16 17 20 22 23 23 23 24 26 27 28 30 31 32 33 33 33 33 31 31 31 30 29 28 28 30 32 33 35 37 38 39 40 41 41 40 39 38 37 37 38 39 38 37 35 32 30 30 30 30 31 33 35 35 38 41 41
15 15 14 14 15 16 17 19 21 22 22 23 24 26 27 29 30 31 32 33 34 35 35 34 33 32 31 31 30 28 28 29 31 33 35 36 37 39 40 41 42 41 40 39 39 40 41 42 42 41 39 37 34 32 31 31 31 32 33 34 36 39 41
15 15 15 15 15 17 18 19 20 21 23 24 26 27 28 29 30 32 33 34 34 35 36 36 35 34 33 32 30 29 28 29 31 32 34 36 37 38 39 40 41 41 40 39 39 40 41 43 45 45 44 42 39 36 33 31 30 31 34 35 36 38 38
16 16 16 16 17 17 17 18 20 21 23 24 25 27 28 30 31 32 33 34 35 36 37 36 36 35 34 33 31 30 29 30 31 33 35 36 38 39 39 40 39 39 40 40 40 39 40 42 44 46 46 46 44 40 35 31 30 30 33 35 37 38 38
17 17 17 17 17 17 17 18 19 20 22 23 25 26 28 30 31 33 34 35 36 37 37 37 36 35 34 33 33 32 31 31 32 34 36 37 38 39 39 39 38 38 39 39 40 40 39 40 42 43 45 47 47 45 39 33 31 31 31 33 36 38 38
18 18 18 18 17 17 17 18 19 20 21 23 24 26 28 29 31 33 34 36 37 37 37 37 36 35 33 33 34 34 34 34 34 36 37 37 38 39 39 38 36 37 37 38 38 38 37 38 39 40 42 43 46 47 44 39 36 34 31 32 33 35 37
18 18 18 17 17 18 18 18 19 19 20 22 23 25 26 28 30 32 34 36 37 37 38 37 36 34 33 34 34 35 36 36 36 37 38 38 38 39 38 38 37 36 36 36 37 37 35 35 36 37 38 39 41 45 46 44 43 40 34 32 32 32 33
17 17 17 17 17 17 18 18 18 18 19 20 22 23 25 27 30 32 34 35 37 38 39 38 36 34 33 34 35 36 37 37 38 38 38 38 38 39 38 38 38 37 36 36 36 36 35 33 34 34 34 34 36 39 43 46 46 43 38 32 29 29 30
15 16 16 16 16 16 17 17 17 17 18 19 20 21 24 26 29 31 33 35 36 38 39 38 36 34 33 34 35 36 36 38 38 38 37 37 37 38 38 38 38 37 36 36 36 36 35 33 33 33 33 31 31 32 35 38 39 40 37 30 25 25 25
13 14 15 15 15 15 16 16 16 17 17 18 19 21 23 26 28 30 32 34 36 37 39 38 36 35 34 35 36 36 36 36 37 37 37 37 36 36 37 37 38 37 37 36 36 37 37 36 34 34 33 30 28 27 27 27 27 30 30 23 17 17 18
11 12 13 13 14 15 15 16 16 16 17 18 20 22 24 26 28 30 32 34 35 37 39 39 37 35 35 35 36 36 35 34 35 36 36 35 36 36 37 37 37 37 37 37 37 37 38 38 37 36 35 32 29 26 25 24 21 19 17 12 9 11 14
10 10 11 12 13 14 15 15 16 16 18 19 20 22 25 27 29 31 33 34 35 36 38 39 38 36 35 35 36 37 35 33 34 35 35 35 35 35 37 37 37 38 38 39 39 38 39 40 40 39 37 35 32 30 28 28 26 21 14 8 4 5 9
Wind_Direction
317 311 308 308 311 311 308 306 307 307 307 307 308 310 313 313 311 311 312 311 311 312 313 313 314 315 314 313 309 306 306 305 305 304 304 307 307 305 307 308 303 301 301 298 298 299 294 291 293 292 285 278 269 262 263 262 257 252 250 249 247 244 241
306 300 296 296 295 294 295 298 301 301 302 303 305 306 306 304 304 306 306 307 309 310 309 309 309 312 314 315 313 311 311 310 306 304 303 302 299 299 306 307 301 299 300 302 303 302 295 287 288 290 286 281 272 262 259 260 261 256 251 248 247 246 243
293 293 291 289 287 287 289 292 295 296 298 299 300 300 298 297 300 302 301 302 304 303 301 301 302 306 309 312 314 313 312 310 307 305 303 303 301 299 301 301 301 304 308 309 305 304 302 292 286 286 284 277 271 268 263 260 261 259 254 250 246 244 242
283 284 284 283 284 285 287 290 293 294 295 295 294 293 292 294 297 300 302 303 300 296 296 298 301 304 306 309 310 308 305 304 303 302 302 302 302 302 302 300 300 302 304 302 300 300 300 296 290 287 285 279 272 271 269 265 263 260 258 255 248 244 242
288 286 286 287 289 292 295 299 302 302 301 299 297 294 294 298 301 304 308 309 305 302 304 305 306 306 307 308 307 304 302 299 298 299 299 299 298 299 302 301 298 296 294 292 292 294 293 293 293 289 289 283 273 271 271 267 266 264 262 261 254 248 244
303 302 302 304 305 309 313 316 317 317 315 313 312 312 312 315 316 316 316 316 314 314 315 314 312 311 309 307 304 302 300 298 297 297 296 296 297 297 298 299 297 295 293 291 293 294 291 291 292 291 290 283 273 274 272 265 264 265 265 263 258 252 247
315 314 312 314 315 318 320 323 326 329 330 331 331 332 332 332 329 326 323 321 320 319 319 318 316 314 312 310 307 304 301 298 297 296 295 294 294 295 294 295 295 295 295 294 294 294 293 292 294 295 293 284 277 276 271 264 264 264 263 261 256 253 250
322 319 317 318 319 322 325 330 335 338 340 341 341 340 339 336 334 332 328 325 323 322 321 321 321 320 319 317 315 313 310 307 303 300 298 296 294 293 292 292 292 293 294 294 294 293 292 291 293 297 293 282 272 269 267 264 263 262 263 263 258 252 250
329 326 326 328 329 333 337 339 343 347 348 348 346 343 341 340 340 338 334 331 328 327 327 327 328 327 328 327 326 325 323 321 317 313 309 305 300 296 293 291 290 291 293 294 293 293 292 289 289 295 293 281 268 261 261 262 263 264 265 264 259 251 246
338 338 339 340 342 346 348 348 351 351 351 351 350 349 349 348 347 345 343 340 336 335 335 334 334 334 334 334 333 332 331 331 329 326 322 317 312 305 299 294 290 289 291 293 292 290 290 290 290 292 291 286 276 266 261 260 264 268 268 266 262 255 248
347 351 351 351 351 353 351 350 352 352 353 355 355 356 355 353 351 349 347 346 344 342 340 339 338 337 336 336 336 335 335 335 334 333 331 326 321 315 308 302 295 290 288 288 288 288 288 288 290 293 293 290 285 276 268 263 263 268 270 269 267 263 256
359 359 357 359 359 356 353 353 356 356 357 358 357 357 356 355 352 350 349 348 347 345 343 341 340 340 339 338 337 337 337 337 337 337 337 334 330 324 317 311 304 297 290 284 281 284 287 287 286 290 294 292 286 280 276 269 264 265 267 268 270 267 261
15 11 9 10 7 4 3 2 2 2 1 360 359 359 357 356 355 353 351 350 349 349 347 346 345 345 345 343 341 341 340 340 339 339 340 338 337 333 326 320 313 306 298 288 280 279 283 286 285 285 288 292 288 283 280 274 267 266 267 267 267 264 260
45 42 39 35 29 26 22 19 19 16 12 10 8 6 4 3 3 360 358 356 355 355 354 353 352 352 351 350 348 346 345 344 343 342 341 340 339 338 335 329 320 313 306 296 285 278 279 283 283 282 282 286 289 287 285 280 273 271 272 270 265 260 259
67 63 60 54 47 43 39 38 37 31 27 25 21 17 15 14 12 8 6 4 3 2 0 359 358 357 356 355 353 352 350 349 347 346 345 344 342 341 339 338 332 322 313 305 293 280 278 282 283 282 280 281 288 290 288 285 279 274 273 273 268 260 257
72 68 65 62 58 55 51 48 45 39 36 34 30 27 24 21 18 14 11 9 7 5 3 2 2 0 359 358 357 356 354 353 351 349 348 347 345 344 342 341 341 336 325 315 306 292 280 280 282 281 275 273 279 286 289 287 282 276 274 275 274 267 258
75 73 71 68 64 59 55 52 47 43 41 37 33 30 26 22 19 15 12 10 7 5 4 2 2 1 1 0 359 358 356 354 353 351 350 348 346 346 344 342 342 341 337 327 319 309 292 281 279 280 276 272 273 278 285 289 284 278 275 276 276 273 266
81 77 74 69 65 62 57 53 49 45 40 36 33 30 26 22 20 16 14 11 9 6 4 2 1 1 1 0 359 358 357 356 354 352 350 348 347 345 344 344 341 340 339 334 327 320 308 292 283 281 281 280 279 276 278 284 286 282 277 275 275 274 270
83 78 74 70 66 63 58 53 50 45 41 37 34 31 27 24 21 19 16 14 11 8 5 3 1 1 0 359 359 358 357 356 355 353 351 349 347 345 343 343 342 339 336 334 329 323 317 309 297 287 283 284 285 282 278 278 282 285 281 276 275 274 270
83 79 75 71 67 63 58 54 49 46 42 38 36 33 29 26 22 20 16 14 12 10 7 4 3 2 1 359 358 357 357 356 355 354 353 351 348 345 343 341 341 340 338 334 329 323 319 316 309 300 292 288 288 287 284 280 279 283 284 279 275 273 270
85 81 76 72 68 62 58 54 50 47 43 39 37 33 29 26 22 19 16 14 13 11 9 7 6 5 3 0 359 357 357 356 355 355 354 353 351 348 345 342 339 339 339 336 330 324 320 317 314 308 300 293 290 289 288 285 281 280 281 280 277 274 273
88 84 79 74 69 64 59 55 51 48 44 40 37 32 29 25 22 20 18 16 14 12 11 10 9 6 4 1 359 358 358 357 357 356 355 354 353 351 349 345 340 337 335 332 329 324 320 316 314 311 308 302 295 291 289 288 286 283 280 279 277 275 274
91 86 81 76 71 66 61 56 52 48 43 40 36 32 28 25 23 21 19 18 16 14 13 12 10 7 5 2 360 358 358 358 358 358 357 356 354 352 351 348 345 339 333 328 327 325 320 315 310 307 306 306 304 297 291 288 288 287 284 280 276 274 273
92 87 82 77 72 66 60 56 51 47 43 40 36 33 30 28 26 25 23 21 19 17 16 13 10 8 6 4 1 359 358 358 358 358 358 358 356 354 352 350 348 344 339 334 332 328 324 319 314 306 299 298 301 301 297 291 287 285 285 282 277 272 271
91 87 82 76 70 64 59 56 51 47 43 41 38 36 34 32 30 28 26 24 22 20 18 15 11 9 7 5 3 1 360 359 359 359 359 359 358 356 354 352 350 348 345 342 338 333 328 324 320 315 307 297 292 292 294 292 288 284 283 281 278 273 269
91 86 80 73 67 63 59 56 52 48 45 42 40 38 36 33 31 29 27 25 23 21 18 16 13 11 9 7 5 3 2 1 1 1 0 359 358 358 357 355 352 351 349 346 342 338 334 330 324 320 315 307 297 289 287 286 284 282 282 280 277 273 270
88 82 77 71 66 63 60 57 52 48 45 42 40 38 35 33 31 29 27 24 22 20 18 16 14 12 9 8 6 4 3 3 3 3 2 1 360 359 357 355 354 352 349 346 343 339 336 333 330 325 321 316 308 298 290 285 280 277 277 277 274 272 269
85 80 76 71 68 66 63 58 52 47 43 40 38 36 34 32 31 28 26 23 21 19 18 16 15 12 10 8 7 5 4 3 3 4 3 2 1 0 358 356 354 352 348 345 342 338 334 333 332 330 327 322 317 309 300 293 287 279 272 270 270 270 269
84 80 76 73 71 69 64 58 52 46 42 39 37 35 34 32 30 27 25 22 20 19 17 16 15 13 11 10 8 6 6 5 5 5 5 2 1 1 360 357 355 352 348 346 342 336 332 330 331 331 330 327 323 316 306 299 295 286 276 269 264 265 266
82 80 76 73 72 68 63 57 51 45 40 37 36 35 33 31 28 26 24 22 21 20 18 17 16 15 14 13 10 8 7 6 6 6 5 3 1 1 0 358 356 353 350 347 343 337 332 330 331 331 330 327 325 321 316 308 298 289 281 272 264 259 260
77 75 73 71 69 65 61 56 51 45 40 36 36 35 32 30 27 25 24 23 22 21 19 18 17 17 17 15 12 11 8 7 7 6 4 3 2 1 0 359 358 356 353 349 344 338 334 332 333 333 330 327 324 322 321 317 307 296 286 275 265 256 254
71 70 68 67 65 61 59 55 51 45 39 36 35 33 31 29 27 26 25 24 23 22 21 20 19 19 20 18 16 13 10 8 8 6 4 3 2 2 1 360 360 359 356 353 349 344 339 336 336 336 333 328 323 320 320 318 314 309 299 282 267 256 249
68 66 63 62 61 58 56 55 51 45 39 35 33 31 30 29 28 27 26 25 25 23 21 21 20 20 21 21 19 16 13 10 9 7 5 4 3 3 3 2 2 1 358 357 355 351 347 344 343 342 339 333 328 322 318 315 314 313 309 295 276 259 247
66 63 60 58 57 56 54 53 49 44 38 33 30 29 29 29 29 28 27 26 25 24 22 21 21 21 22 22 20 18 15 13 11 8 7 6 5 5 5 4 4 2 0 360 360 358 355 353 353 352 347 341 334 325 317 315 314 313 311 304 286 266 251
66 63 58 55 55 54 52 50 46 43 38 33 29 27 27 28 29 29 28 27 25 24 23 22 22 22 21 20 19 19 17 14 12 10 9 8 7 8 8 7 6 4 2 2 2 4 3 1 1 1 356 350 342 334 329 328 323 316 311 307 291 271 258
66 62 57 53 52 51 50 47 44 41 38 34 29 26 26 27 27 27 27 27 26 24 23 22 22 21 20 18 18 19 18 16 14 13 12 10 10 10 10 10 8 6 5 5 5 7 8 8 8 7 4 0 356 354 354 355 350 337 323 308 281 262 256
65 61 57 53 50 48 47 45 42 40 38 34 29 25 25 25 26 26 26 26 25 23 22 22 21 20 19 18 17 18 19 19 17 17 16 15 15 15 13 12 11 10 10 10 9 9 11 11 12 12 11 9 8 12 17 19 17 13 6 357 340 276 253